Location: Fluertsh�userhof
(48.7537°N, 10.3850°E)
Time: 05:57:54
(UTC+00:00)

USA 116 - Pass Details

Date: 18 September 2020
Orbit: 405 x 834 km, 97.9° (Epoch: 18 November)

Event Time Altitude Azimuth Distance (km) Brightness Sun altitude
Rises 18:17:05 0° 12° (NNE) 2,418 7.0 -9.5°
Reaches altitude 10° 18:19:01 10° 12° (NNE) 1,581 6.1 -9.8°
Maximum altitude 18:22:23 82° 286° (WNW) 487 3.5 -10.3°
Drops below altitude 10° 18:26:05 10° 198° (SSW) 1,741 6.3 -10.9°
Sets 18:28:18 0° 197° (SSW) 2,692 7.3 -11.3°
